Hobart, OK

1:59 AM CDT on October 18, 2017 (GMT -0500)
Hobart Municipal

Weather History for KHBR - March, 2014

Change the Weather History Date:

Thursday, March 27, 2014

  Actual Average Record
Temperature  
Mean Temperature 68 °F -  
Max Temperature 80 °F 63 °F 81 °F (2008)
Min Temperature 55 °F 40 °F 26 °F (2009)
Cooling Degree Days 2    
Growing Degree Days 18 (Base 50)    
Moisture  
Dew Point 43 °F    
Average Humidity 55    
Maximum Humidity 93    
Minimum Humidity 13    
Precipitation  
Precipitation 0.00 in - - ()
Sea Level Pressure  
Sea Level Pressure 29.63 in    
Wind  
Wind Speed 23 mph (SW)    
Max Wind Speed 30 mph    
Max Gust Speed 43 mph    
Visibility 10 miles    
Events      
Averages and records for this station are not official NWS values.
T = Trace of Precipitation, MM = Missing Value Source: NWS Daily Summary

Daily Weather History Graph

Daily Weather History Graph

Search for Another Location

Airport or City:

Trip Planner

Search our weather history database for the weather conditions in past years. The results will help you decide how hot, cold, wet, or windy it might be!

Date:

Astronomy

Mar. 27, 2014 Rise Set
Actual Time 7:29 AM CDT 7:53 PM CDT
Civil Twilight 7:04 AM CDT 8:18 PM CDT
Nautical Twilight 6:34 AM CDT 8:48 PM CDT
Astronomical Twilight 6:04 AM CDT 9:19 PM CDT
Moon 5:14 AM CDT (3/27) 4:49 PM CDT (3/27)
Length of Visible Light 13h 14m
Length of Day
12h 23m
Waning Crescent, 13% of the Moon is Illuminated
Mar 27
Waning Crescent
Mar 30
New
Apr 7
First Quarter
Apr 15
Full
Apr 22
Last Quarter

Hourly Weather History & Observations

Time (CDT) Temp. Dew Point Humidity Pressure Visibility Wind Dir Wind Speed Gust Speed Precip Events Conditions
12:53 AM 57.0 °F 52.0 °F 83% 29.64 in 10.0 mi South 28.8 mph 40.3 mph N/A   Overcast
1:53 AM 57.9 °F 53.1 °F 84% 29.62 in 10.0 mi South 28.8 mph 42.6 mph N/A   Overcast
2:53 AM 57.9 °F 53.1 °F 84% 29.61 in 10.0 mi South 27.6 mph 36.8 mph N/A   Overcast
3:53 AM 57.9 °F 54.0 °F 87% 29.59 in 10.0 mi South 29.9 mph 35.7 mph N/A   Overcast
4:53 AM 57.9 °F 54.0 °F 87% 29.58 in 10.0 mi South 25.3 mph 34.5 mph N/A   Overcast
5:26 AM 57.2 °F 53.6 °F 88% 29.58 in 10.0 mi South 25.3 mph 34.5 mph N/A   Overcast
5:53 AM 57.9 °F 54.0 °F 87% 29.57 in 10.0 mi South 24.2 mph 33.4 mph N/A   Overcast
6:53 AM 57.9 °F 55.0 °F 90% 29.61 in 10.0 mi SSW 13.8 mph 25.3 mph N/A   Overcast
7:53 AM 55.9 °F 54.0 °F 93% 29.63 in 10.0 mi SSW 12.7 mph - N/A   Scattered Clouds
8:53 AM 60.1 °F 55.0 °F 83% 29.64 in 10.0 mi SSW 18.4 mph - N/A   Clear
9:53 AM 63.0 °F 55.0 °F 75% 29.62 in 10.0 mi SSW 24.2 mph 32.2 mph N/A   Clear
10:53 AM 69.1 °F 46.9 °F 45% 29.61 in 10.0 mi SW 25.3 mph 31.1 mph N/A   Clear
12:53 PM 75.9 °F 28.9 °F 18% 29.59 in 10.0 mi West 26.5 mph 35.7 mph N/A   Clear
1:53 PM 78.1 °F 28.0 °F 16% 29.58 in 9.0 mi West 26.5 mph 33.4 mph N/A   Mostly Cloudy
2:53 PM 79.0 °F 27.0 °F 15% 29.57 in 8.0 mi West 24.2 mph 32.2 mph N/A   Overcast
3:53 PM 77.0 °F 25.0 °F 15% 29.58 in 9.0 mi West 19.6 mph 26.5 mph N/A   Overcast
4:53 PM 80.1 °F 25.0 °F 13% 29.57 in 10.0 mi WNW 17.3 mph - N/A   Scattered Clouds
5:53 PM 78.1 °F 25.0 °F 14% 29.59 in 10.0 mi West 18.4 mph 24.2 mph N/A   Clear
6:53 PM 73.0 °F 32.0 °F 22% 29.60 in 10.0 mi WSW 9.2 mph - N/A   Clear
7:53 PM 66.9 °F 37.9 °F 34% 29.64 in 10.0 mi NNW 6.9 mph - N/A   Clear
8:53 PM 62.1 °F 39.9 °F 44% 29.68 in 10.0 mi ENE 6.9 mph - N/A   Overcast
9:53 PM 57.0 °F 42.1 °F 57% 29.71 in 10.0 mi ESE 8.1 mph - N/A   Clear
10:53 PM 60.1 °F 39.0 °F 46% 29.74 in 10.0 mi NE 8.1 mph - N/A   Clear
11:38 PM 60.8 °F 37.4 °F 42% 29.79 in 10.0 mi ENE 19.6 mph 31.1 mph N/A   Clear
11:53 PM 57.0 °F 39.0 °F 51% 29.76 in 10.0 mi ENE 17.3 mph - N/A   Clear